Location: Chavannes
(47.1090°N, 0.2226°W)
Time: 13:33:01
(UTC+00:00)

Cosmos 1697 Rocket - Pass Details

Date: 16 October 2021
Orbit: 834 x 842 km, 71.0° (Epoch: 02 December)

Event Time Altitude Azimuth Distance (km) Brightness Sun altitude
Rises 17:33:30 0° 187° (S) 3,383 6.1 -4.5°
Reaches altitude 10° 17:36:00 10° 182° (S) 2,452 5.3 -4.9°
Maximum altitude 17:41:23 48° 109° (ESE) 1,089 3.0 -5.9°
Drops below altitude 10° 17:46:47 10° 37° (NE) 2,466 4.7 -6.8°
Sets 17:49:18 0° 32° (NNE) 3,404 5.5 -7.2°
